Weather History for KDXX - May, 2014

Change the Weather History Date:

Tuesday, May 20, 2014

  Actual Average (KAQP) Record (KAQP)
Temperature  
Mean Temperature 68 °F -  
Max Temperature 82 °F 66 °F 82 °F (2014)
Min Temperature 53 °F 44 °F 30 °F (1997)
Cooling Degree Days 2    
Growing Degree Days 18 (Base 50)    
Moisture  
Dew Point 49 °F    
Average Humidity 54    
Maximum Humidity 94    
Minimum Humidity 21    
Precipitation  
Precipitation 0.00 in - - ()
Sea Level Pressure  
Sea Level Pressure 29.83 in    
Wind  
Wind Speed 8 mph (WNW)    
Max Wind Speed 18 mph    
Max Gust Speed 24 mph    
Visibility 10 miles    
Events      
Averages and records for this station are not official NWS values.
T = Trace of Precipitation, MM = Missing Value Source: NWS Daily Summary

Daily Weather History Graph

Daily Weather History Graph

Search for Another Location

Airport or City:

Trip Planner

Search our weather history database for the weather conditions in past years. The results will help you decide how hot, cold, wet, or windy it might be!

Date:

Astronomy

May. 20, 2014 Rise Set
Actual Time 5:50 AM CDT 8:52 PM CDT
Civil Twilight 5:15 AM CDT 9:27 PM CDT
Nautical Twilight 4:30 AM CDT 10:12 PM CDT
Astronomical Twilight 3:37 AM CDT 11:06 PM CDT
Moon 1:17 AM CDT (5/20) 12:05 PM CDT (5/20)
Length of Visible Light 16h 12m
Length of Day
15h 02m
Waning Gibbous, 60% of the Moon is Illuminated
May 20
Waning Gibbous
May 21
Last Quarter
May 28
New
Jun 5
First Quarter
Jun 12
Full

Hourly Weather History & Observations

Time (CDT) Temp. Dew Point Humidity Pressure Visibility Wind Dir Wind Speed Gust Speed Precip Events Conditions
12:14 AM 62.6 °F 57.2 °F 82% 29.73 in 7.0 mi SW 8.1 mph - N/A   Clear
12:34 AM 60.8 °F 55.4 °F 82% 29.73 in 7.0 mi SW 4.6 mph - N/A   Clear
1:14 AM 60.8 °F 55.4 °F 82% 29.74 in 5.0 mi WSW 5.8 mph - N/A   Clear
1:33 AM 59.0 °F 55.4 °F 88% 29.75 in 5.0 mi WSW 4.6 mph - N/A   Clear
1:54 AM 60.8 °F 55.4 °F 82% 29.75 in 10.0 mi West 5.8 mph - N/A   Clear
2:14 AM 60.8 °F 53.6 °F 77% 29.76 in 10.0 mi West 5.8 mph - N/A   Clear
2:33 AM 60.8 °F 53.6 °F 77% 29.77 in 10.0 mi WSW 4.6 mph - N/A   Clear
2:54 AM 60.8 °F 53.6 °F 77% 29.76 in 10.0 mi West 5.8 mph - N/A   Clear
3:14 AM 57.2 °F 53.6 °F 88% 29.77 in 10.0 mi WSW 4.6 mph - N/A   Clear
3:33 AM 57.2 °F 53.6 °F 88% 29.77 in 10.0 mi West 9.2 mph - N/A   Clear
3:54 AM 57.2 °F 51.8 °F 82% 29.76 in 10.0 mi West 5.8 mph - N/A   Clear
4:14 AM 57.2 °F 51.8 °F 82% 29.77 in 10.0 mi West 4.6 mph - N/A   Clear
4:33 AM 57.2 °F 51.8 °F 82% 29.76 in 10.0 mi West 5.8 mph - N/A   Clear
4:54 AM 55.4 °F 51.8 °F 88% 29.75 in 10.0 mi West 3.5 mph - N/A   Clear
5:14 AM 55.4 °F 50.0 °F 82% 29.75 in 10.0 mi West 4.6 mph - N/A   Clear
5:33 AM 53.6 °F 51.8 °F 94% 29.76 in 10.0 mi SW 4.6 mph - N/A   Clear
5:54 AM 53.6 °F 51.8 °F 94% 29.78 in 10.0 mi West 4.6 mph - N/A   Clear
6:14 AM 55.4 °F 51.8 °F 88% 29.79 in 10.0 mi WNW 5.8 mph - N/A   Clear
6:33 AM 55.4 °F 51.8 °F 88% 29.79 in 10.0 mi WNW 3.5 mph - N/A   Clear
6:54 AM 55.4 °F 51.8 °F 88% 29.80 in 10.0 mi WNW 6.9 mph - N/A   Clear
7:14 AM 59.0 °F 53.6 °F 82% 29.81 in 10.0 mi NW 6.9 mph - N/A   Clear
7:33 AM 60.8 °F 53.6 °F 77% 29.81 in 10.0 mi NW 6.9 mph - N/A   Clear
7:54 AM 62.6 °F 55.4 °F 77% 29.82 in 10.0 mi NNW 8.1 mph - N/A   Clear
8:14 AM 66.2 °F 55.4 °F 68% 29.83 in 10.0 mi NNW 9.2 mph - N/A   Clear
8:33 AM 66.2 °F 55.4 °F 68% 29.84 in 10.0 mi NNW 9.2 mph - N/A   Clear
8:54 AM 69.8 °F 55.4 °F 60% 29.85 in 10.0 mi NNW 6.9 mph - N/A   Clear
9:13 AM 69.8 °F 53.6 °F 56% 29.85 in 10.0 mi North 6.9 mph - N/A   Clear
9:34 AM 71.6 °F 53.6 °F 53% 29.86 in 10.0 mi North 5.8 mph - N/A   Clear
9:54 AM 71.6 °F 51.8 °F 50% 29.86 in 10.0 mi North 6.9 mph - N/A   Clear
10:13 AM 71.6 °F 51.8 °F 50% 29.86 in 10.0 mi North 3.5 mph - N/A   Clear
10:34 AM 73.4 °F 51.8 °F 47% 29.86 in 10.0 mi Calm Calm - N/A   Clear
10:54 AM 73.4 °F 51.8 °F 47% 29.86 in 10.0 mi WNW 3.5 mph - N/A   Clear
11:13 AM 73.4 °F 50.0 °F 44% 29.87 in 10.0 mi Calm Calm - N/A   Clear
11:54 AM 75.2 °F 51.8 °F 44% 29.87 in 10.0 mi Calm Calm - N/A   Unknown
12:13 PM 75.2 °F 51.8 °F 44% 29.87 in 10.0 mi Calm Calm - N/A   Clear
12:33 PM 77.0 °F 51.8 °F 41% 29.86 in 10.0 mi Calm Calm - N/A   Clear
12:54 PM 78.8 °F 48.2 °F 34% 29.86 in 10.0 mi NW 5.8 mph - N/A   Clear
1:13 PM 78.8 °F 51.8 °F 39% 29.86 in 10.0 mi SW 4.6 mph - N/A   Clear
1:34 PM 78.8 °F 46.4 °F 32% 29.85 in 10.0 mi NNW 4.6 mph - N/A   Scattered Clouds
1:54 PM 80.6 °F 48.2 °F 32% 29.84 in 10.0 mi West 11.5 mph 17.3 mph N/A   Scattered Clouds
2:13 PM 78.8 °F 46.4 °F 32% 29.84 in 10.0 mi WSW 11.5 mph 17.3 mph N/A   Scattered Clouds
2:34 PM 82.4 °F 44.6 °F 26% 29.83 in 10.0 mi WNW 12.7 mph 16.1 mph N/A   Clear
2:54 PM 82.4 °F 39.2 °F 21% 29.83 in 10.0 mi NW 17.3 mph 20.7 mph N/A   Clear
3:13 PM 82.4 °F 39.2 °F 21% 29.83 in 10.0 mi WNW 17.3 mph 24.2 mph N/A   Clear
3:34 PM 82.4 °F 41.0 °F 23% 29.83 in 10.0 mi WNW 15.0 mph 20.7 mph N/A   Clear
4:13 PM 82.4 °F 39.2 °F 21% 29.83 in 10.0 mi West 18.4 mph - N/A   Clear
4:53 PM 82.4 °F 39.2 °F 21% 29.83 in 10.0 mi West 16.1 mph 24.2 mph N/A   Clear
5:14 PM 82.4 °F 41.0 °F 23% 29.83 in 10.0 mi NW 15.0 mph 19.6 mph N/A   Clear
5:34 PM 82.4 °F 39.2 °F 21% 29.83 in 10.0 mi NW 12.7 mph 20.7 mph N/A   Clear
5:53 PM 80.6 °F 39.2 °F 23% 29.83 in 10.0 mi WNW 16.1 mph - N/A   Clear
6:14 PM 82.4 °F 41.0 °F 23% 29.83 in 10.0 mi WNW 16.1 mph 21.9 mph N/A   Clear
6:34 PM 80.6 °F 39.2 °F 23% 29.83 in 10.0 mi WNW 8.1 mph - N/A   Clear
6:54 PM 80.6 °F 39.2 °F 23% 29.83 in 10.0 mi WNW 13.8 mph 18.4 mph N/A   Scattered Clouds
7:14 PM 80.6 °F 39.2 °F 23% 29.83 in 10.0 mi WNW 9.2 mph - N/A   Scattered Clouds
7:33 PM 78.8 °F 37.4 °F 23% 29.83 in 10.0 mi WNW 15.0 mph - N/A   Clear
7:54 PM 78.8 °F 37.4 °F 23% 29.83 in 10.0 mi WNW 12.7 mph 17.3 mph N/A   Clear
8:14 PM 78.8 °F 39.2 °F 24% 29.84 in 10.0 mi NW 11.5 mph 18.4 mph N/A   Clear
8:33 PM 75.2 °F 41.0 °F 29% 29.85 in 10.0 mi NW 9.2 mph - N/A   Clear
8:54 PM 73.4 °F 42.8 °F 33% 29.85 in 10.0 mi NW 13.8 mph - N/A   Clear
9:14 PM 71.6 °F 48.2 °F 43% 29.87 in 10.0 mi NNW 12.7 mph - N/A   Clear
9:33 PM 71.6 °F 48.2 °F 43% 29.88 in 10.0 mi NNW 11.5 mph - N/A   Clear
9:54 PM 69.8 °F 48.2 °F 46% 29.89 in 10.0 mi NNW 11.5 mph - N/A   Clear
10:14 PM 68.0 °F 50.0 °F 52% 29.90 in 10.0 mi NNW 11.5 mph - N/A   Clear
10:34 PM 66.2 °F 50.0 °F 56% 29.91 in 10.0 mi NNW 12.7 mph - N/A   Clear
10:53 PM 66.2 °F 48.2 °F 52% 29.92 in 10.0 mi NNW 15.0 mph 24.2 mph N/A   Clear
11:14 PM 64.4 °F 48.2 °F 56% 29.93 in 10.0 mi North 13.8 mph - N/A   Clear
11:34 PM 64.4 °F 48.2 °F 56% 29.94 in 10.0 mi North 15.0 mph - N/A   Clear
11:53 PM 62.6 °F 48.2 °F 59% 29.95 in 10.0 mi North 17.3 mph - N/A   Clear